Weather History for KLAS - December, 2010

Nearest airport to Las Vegas, NV.

See history from more local stations
Change the Weather History Date:

Tuesday, December 14, 2010

  Actual Average Record
Temperature  
Mean Temperature 55 °F 47 °F  
Max Temperature 66 °F 56 °F 72 °F (1942)
Min Temperature 44 °F 38 °F 16 °F (1945)
Degree Days  
Heating Degree Days 10 18  
Month to date heating degree days 165 233  
Since 1 July heating degree days 474 542  
Cooling Degree Days 0 0  
Month to date cooling degree days 0 0  
Year to date cooling degree days 3648 3568  
Growing Degree Days 6 (Base 50)    
Moisture  
Dew Point 35 °F    
Average Humidity 47    
Maximum Humidity 70    
Minimum Humidity 24    
Precipitation  
Precipitation 0.00 in 0.02 in 0.20 in (2012)
Month to date precipitation 0.13 0.19  
Year to date precipitation 4.26 3.88  
Snow  
Snow 0.00 in 0.00 in T in (1967)
Month to date snowfall 0.0 0.1  
Since 1 July snowfall 0.0 0.1  
Snow Depth 0.00 in    
Sea Level Pressure  
Sea Level Pressure 29.78 in    
Wind  
Wind Speed 7 mph (SSW)    
Max Wind Speed 25 mph    
Max Gust Speed 35 mph    
Visibility 10 miles    
Events      
T = Trace of Precipitation, MM = Missing Value Source: NWS Daily Summary

Daily Weather History Graph

Daily Weather History Graph

Search for Another Location

Airport or City:

Trip Planner

Search our weather history database for the weather conditions in past years. The results will help you decide how hot, cold, wet, or windy it might be!

Date:

Astronomy

Dec. 14, 2010 Rise Set
Actual Time 6:43 AM PST 4:27 PM PST
Civil Twilight 6:14 AM PST 4:55 PM PST
Nautical Twilight 5:42 AM PST 5:27 PM PST
Astronomical Twilight 5:11 AM PST 5:59 PM PST
Moon 12:01 PM PST (12/14) 12:16 AM PST (12/14)
Length of Visible Light 10h 40m
Length of Day
9h 43m
First Quarter, 62% of the Moon is Illuminated
Dec 14
First Quarter
Dec 21
Full
Dec 27
Last Quarter
Jan 4
New
Jan 12
First Quarter

Hourly Weather History & Observations

Time (PST) Temp. Windchill Dew Point Humidity Pressure Visibility Wind Dir Wind Speed Gust Speed Precip Events Conditions
12:56 AM 48.0 °F - 36.0 °F 63% 29.92 in 10.0 mi SSW 8.1 mph - N/A   Partly Cloudy
1:56 AM 46.9 °F - 34.0 °F 61% 29.91 in 10.0 mi SSW 10.4 mph - N/A   Partly Cloudy
2:56 AM 46.9 °F - 34.0 °F 61% 29.89 in 10.0 mi SSW 5.8 mph - N/A   Partly Cloudy
3:56 AM 45.0 °F 42.6 °F 35.1 °F 68% 29.88 in 10.0 mi SW 4.6 mph - N/A   Scattered Clouds
4:56 AM 46.0 °F 43.9 °F 35.1 °F 66% 29.87 in 10.0 mi SSW 4.6 mph - N/A   Scattered Clouds
5:56 AM 46.0 °F 42.5 °F 35.1 °F 66% 29.87 in 10.0 mi SSW 6.9 mph - N/A   Scattered Clouds
6:56 AM 46.0 °F 41.9 °F 36.0 °F 68% 29.88 in 10.0 mi South 8.1 mph - N/A   Scattered Clouds
7:56 AM 48.9 °F - 36.0 °F 61% 29.88 in 10.0 mi SSW 8.1 mph - N/A   Mostly Cloudy
8:56 AM 52.0 °F - 36.0 °F 54% 29.89 in 10.0 mi Calm Calm - N/A   Mostly Cloudy
9:56 AM 54.0 °F - 37.0 °F 53% 29.89 in 10.0 mi Calm Calm - N/A   Mostly Cloudy
10:56 AM 55.9 °F - 36.0 °F 47% 29.85 in 10.0 mi Calm Calm - N/A   Mostly Cloudy
11:56 AM 59.0 °F - 36.0 °F 42% 29.79 in 10.0 mi Calm Calm - N/A   Mostly Cloudy
12:56 PM 59.0 °F - 35.1 °F 41% 29.77 in 10.0 mi North 3.5 mph - N/A   Mostly Cloudy
1:56 PM 60.1 °F - 35.1 °F 39% 29.75 in 10.0 mi Calm Calm - N/A   Mostly Cloudy
2:56 PM 61.0 °F - 35.1 °F 38% 29.73 in 10.0 mi SSW 4.6 mph - N/A   Mostly Cloudy
3:56 PM 60.1 °F - 35.1 °F 39% 29.72 in 10.0 mi SSW 8.1 mph - N/A   Mostly Cloudy
4:56 PM 59.0 °F - 36.0 °F 42% 29.71 in 10.0 mi South 6.9 mph - N/A   Mostly Cloudy
5:56 PM 57.0 °F - 36.0 °F 45% 29.70 in 10.0 mi SSW 8.1 mph - N/A   Mostly Cloudy
6:56 PM 55.0 °F - 36.0 °F 49% 29.69 in 10.0 mi SW 5.8 mph - N/A   Mostly Cloudy
7:56 PM 54.0 °F - 36.0 °F 51% 29.68 in 10.0 mi Variable 6.9 mph - N/A   Mostly Cloudy
8:56 PM 66.0 °F - 28.9 °F 25% 29.66 in 10.0 mi South 17.3 mph 25.3 mph N/A   Mostly Cloudy
9:56 PM 64.0 °F - 30.0 °F 28% 29.64 in 10.0 mi South 21.9 mph 29.9 mph N/A   Mostly Cloudy
10:56 PM 63.0 °F - 33.1 °F 33% 29.62 in 10.0 mi South 21.9 mph 31.1 mph N/A   Mostly Cloudy
11:56 PM 62.1 °F - 37.0 °F 39% 29.61 in 10.0 mi South 13.8 mph 28.8 mph N/A   Mostly Cloudy